星链-4211 (STARLINK-4211 )

导读 | 豆包AI

STARLINK-4211是美国于2022年6月17日发射的星链卫星,隶属于SpaceX公司星链互联网星座项目。该卫星主要为全球提供低延迟、高速率的卫星互联网服务,尤其覆盖偏远地区等地面网络难以抵达区域,依托星链星座组网,推动全球互联网接入覆盖率提升,也在商用及特殊领域发挥通信支撑作用。

基本信息
目录编号:
52873
目录名称:
STARLINK-4211
国际标识:
2022-062AV
轨道中心:
EARTH
卫星名称:
星链-4211
卫星全名:
星链-4211 (STARLINK-4211 )
卫星状态:
在轨 (已飞行1413 天)
发射日期:
2022-06-17 UTC
国别 :
美国 (US)
星等 :
--
轨道信息
数据来源 国际轨道数据
星历时间: 2026-04-30T13:22:48+0800
14小时前
查看轨道信息
半长轴: 6917.895km
偏心率: 0.0001053
轨道倾角: 53.216°
近地点辐角 80.830°
升交点赤经 142.774°
平近点角 279.281°
近地点: 539.029km
远地点: 540.487km
周期: 95.438分钟
每日圈数: 15.088355
详细信息
固有亮度:
5
最大亮度:
2.5
卫星平台:
Starlink v1.5
覆盖范围:
全球
运营商:
太空探索技术公司
运营商所在国:
美国
制造商(研发单位):
太空探索技术公司
制造商所在国:
美国
使用方式:
暂无
卫星简介
星链(Starlink)计划是由太空探索技术公司(SpaceX)提出的一个巨型低轨卫星互联网星座项目,计划在2019年至2024年间在太空搭建由约1.2万颗卫星组成的“星链”网络,其中1584颗将部署在地球上空550千米处的近地轨道,并从2020年开始工作。该卫星仍在工作。
2D轨道图
3D轨道图
轨道高度分析图
轨道倾角分析图
轨道综合分析图
查看轨道综合分析图